User: anonymous   Login
Location: Mentone
(34.5413°N, 85.5351°W)
Time: 04:14:12
(UTC-05:00)
Language:

AO-Echo - Orbit

View from above orbital plane
View from above orbital plane
View from above satellite
View from above satellite

Ground track
Ground track

The orbit data is extracted from the following two-line orbital elements,

1 28375U 04025K   15123.82205121  .00000169  00000-0  62491-4 0  9991
2 28375 098.2897 065.5486 0084032 103.3679 257.6896 14.41641381570109
Epoch (UTC): 03 May 2015 19:43:45
Eccentricity: 0.0084032
inclination: 98.2897°
perigee height: 693 km
apogee height: 813 km
right ascension of ascending node: 65.5486°
argument of perigee: 103.3679°
revolutions per day: 14.41641381
mean anomaly at epoch: 257.6896°
orbit number at epoch: 57010

The dashed part of the orbit path shows where the satellite is in the earth's shadow,  

DLR